�N����,����,�~����,�C��,���x,�C��,����,���ϕ���,�ő�u�ԕ���,�ő厞����,���˗�,�I�_���x,�n�����x,�ő啗���N��,DTYPE
"20/09/02","00:10",0.0,27.6,78.8,1004.1,6.1,0.6,1.8,89.0,0.00,23.6,27.9,"00:03:04",1
"20/09/02","00:20",0.0,27.4,79.0,1004.3,342.0,0.6,1.3,334.1,0.00,23.5,28.0,"00:19:20",1
"20/09/02","00:30",0.0,27.2,79.6,1004.3,309.7,0.6,1.6,358.3,0.00,23.4,27.9,"00:28:16",1
"20/09/02","00:40",0.0,27.0,80.4,1004.1,342.2,0.7,1.8,341.5,0.00,23.4,27.8,"00:39:04",1
"20/09/02","00:50",0.0,26.7,81.2,1004.3,336.2,0.8,1.9,322.9,0.00,23.2,27.7,"00:43:36",1
"20/09/02","01:00",0.0,26.9,81.7,1004.3,166.7,0.6,1.4,145.5,0.00,23.5,27.9,"00:56:56",1
"20/09/02","01:10",0.0,27.2,81.4,1004.8,357.0,0.7,1.4,3.0,0.00,23.8,27.8,"01:05:12",1
"20/09/02","01:20",0.0,27.2,81.3,1004.5,325.0,0.6,2.0,354.5,0.00,23.8,27.8,"01:13:52",1
"20/09/02","01:30",0.0,27.3,80.9,1004.3,49.9,0.5,1.4,1.7,0.00,23.8,27.7,"01:20:48",1
"20/09/02","01:40",0.0,27.4,80.7,1004.1,353.5,0.7,1.3,336.0,0.00,23.8,27.9,"01:30:40",1
"20/09/02","01:50",0.0,27.3,80.7,1004.3,335.4,0.7,1.4,338.6,0.00,23.7,27.9,"01:46:56",1
"20/09/02","02:00",0.0,27.2,81.0,1004.1,335.3,0.8,1.8,344.7,0.00,23.7,27.7,"01:59:52",1
"20/09/02","02:10",0.0,27.2,81.2,1004.1,287.8,0.7,1.3,342.0,0.00,23.7,27.6,"02:00:16",1
"20/09/02","02:20",0.0,27.2,81.3,1004.5,320.0,0.3,1.0,146.3,0.00,23.8,27.7,"02:19:36",1
"20/09/02","02:30",0.0,27.3,81.1,1004.3,8.4,0.6,2.6,20.7,0.00,23.8,27.6,"02:22:00",1
"20/09/02","02:40",0.0,27.6,80.6,1004.3,190.8,0.5,1.1,247.8,0.00,24.0,27.5,"02:34:40",1
"20/09/02","02:50",0.0,27.6,80.1,1004.1,191.5,0.2,0.9,112.2,0.00,23.9,27.5,"02:44:00",1
"20/09/02","03:00",0.0,27.6,79.8,1004.1,205.2,0.6,1.7,176.1,0.00,23.8,27.8,"02:54:48",1
"20/09/02","03:10",0.0,27.8,79.6,1004.5,154.2,0.8,2.0,128.4,0.00,24.0,27.5,"03:01:04",1
"20/09/02","03:20",0.0,27.6,79.9,1004.5,72.9,0.6,1.7,125.0,0.00,23.9,27.4,"03:12:00",1
"20/09/02","03:30",0.0,27.5,80.6,1004.3,332.4,0.7,1.6,337.3,0.00,23.9,27.6,"03:28:00",1
"20/09/02","03:40",0.0,27.2,81.6,1004.1,348.4,0.8,1.7,343.7,0.00,23.8,27.5,"03:38:56",1
"20/09/02","03:50",0.0,27.0,82.5,1004.3,342.6,1.0,1.8,337.7,0.00,23.8,27.4,"03:46:40",1
"20/09/02","04:00",0.0,26.9,83.2,1004.1,336.3,0.6,1.4,339.1,0.00,23.8,27.6,"03:57:36",1
"20/09/02","04:10",0.0,26.8,83.8,1004.1,297.4,0.7,1.3,333.1,0.00,23.9,27.6,"04:05:36",1
"20/09/02","04:20",0.0,26.8,84.5,1004.3,323.3,0.6,1.4,341.7,0.00,24.0,27.4,"04:16:56",1
"20/09/02","04:30",0.0,26.8,84.8,1004.3,346.0,0.8,1.8,320.7,0.00,24.1,27.3,"04:24:40",1
"20/09/02","04:40",0.0,27.2,84.4,1004.3,97.0,1.1,2.9,117.4,0.00,24.4,27.5,"04:39:04",1
"20/09/02","04:50",0.0,27.4,83.5,1004.8,94.0,1.3,2.5,108.8,0.00,24.4,27.5,"04:40:56",1
"20/09/02","05:00",0.0,27.6,82.8,1004.8,103.5,1.2,2.6,87.7,0.00,24.5,27.4,"04:51:04",1
"20/09/02","05:10",0.0,27.6,82.2,1004.5,100.0,1.1,2.7,113.0,0.00,24.3,27.5,"05:03:44",1
"20/09/02","05:20",0.0,27.7,81.9,1004.3,82.1,1.0,2.6,112.7,0.00,24.4,27.4,"05:13:20",1
"20/09/02","05:30",0.0,27.6,81.6,1004.1,78.0,0.8,2.4,112.7,0.00,24.2,27.4,"05:23:44",1
"20/09/02","05:40",0.0,27.7,81.2,1004.1,91.0,1.0,3.2,106.6,0.00,24.2,27.4,"05:39:44",1
"20/09/02","05:50",0.0,27.8,80.6,1004.1,109.0,1.6,3.9,102.2,0.00,24.2,27.3,"05:40:02",1
"20/09/02","06:00",0.0,27.8,80.2,1004.5,105.8,1.5,3.2,121.3,0.00,24.1,27.4,"05:56:56",1
"20/09/02","06:10",0.0,27.9,79.9,1004.5,107.1,1.6,4.1,117.4,0.00,24.1,27.1,"06:07:12",1
"20/09/02","06:20",0.0,28.1,79.0,1004.5,115.3,1.3,3.7,123.9,0.01,24.2,27.4,"06:17:52",1
"20/09/02","06:30",0.0,28.2,78.3,1004.8,111.4,1.3,3.4,146.0,0.00,24.1,27.4,"06:23:04",1
"20/09/02","06:40",0.0,28.1,78.0,1004.5,115.6,1.7,3.1,69.0,0.01,23.9,27.3,"06:30:16",1
"20/09/02","06:50",0.0,28.1,77.8,1004.5,101.9,1.6,4.7,97.6,0.01,23.9,27.2,"06:41:52",1
"20/09/02","07:00",0.0,28.1,78.0,1004.5,110.9,1.2,2.8,109.7,0.01,23.9,27.3,"06:58:32",1
"20/09/02","07:10",0.0,28.0,78.0,1004.5,106.0,1.7,3.6,110.6,0.00,23.8,27.3,"07:09:20",1
"20/09/02","07:20",0.0,28.0,77.8,1004.5,100.2,2.3,5.2,105.5,0.02,23.8,27.4,"07:18:56",1
"20/09/02","07:30",0.0,28.1,77.2,1004.5,103.3,2.1,4.7,105.4,0.05,23.8,27.1,"07:29:36",1
"20/09/02","07:40",0.0,28.4,76.8,1004.3,108.5,1.7,4.9,109.5,0.07,24.0,27.3,"07:30:24",1
"20/09/02","07:50",0.0,28.7,75.5,1004.8,109.5,1.5,4.3,109.5,0.08,24.0,27.3,"07:46:40",1
"20/09/02","08:00",0.0,28.9,74.5,1004.3,107.6,1.3,3.7,130.0,0.11,23.9,27.4,"07:57:20",1
"20/09/02","08:10",0.0,29.1,73.8,1004.1,109.2,1.6,4.0,118.1,0.12,24.0,27.3,"08:05:52",1
"20/09/02","08:20",0.0,29.8,70.4,1004.3,104.7,2.2,5.0,111.0,0.25,23.9,27.7,"08:14:40",1
"20/09/02","08:30",0.0,30.3,69.2,1004.5,114.0,2.3,4.8,160.7,0.22,24.1,27.7,"08:24:40",1
"20/09/02","08:40",0.0,30.5,65.3,1004.5,114.5,2.5,6.8,119.6,0.25,23.3,27.9,"08:39:04",1
"20/09/02","08:50",0.0,30.7,66.4,1004.8,112.1,2.7,5.4,118.5,0.28,23.8,27.7,"08:40:32",1
"20/09/02","09:00",0.0,31.2,64.5,1005.0,111.4,2.5,5.9,107.4,0.33,23.7,28.0,"08:54:40",1
"20/09/02","09:10",0.0,30.7,64.2,1005.2,124.0,2.5,5.9,126.3,0.18,23.2,28.1,"09:00:32",1
"20/09/02","09:20",0.0,30.6,64.9,1005.5,129.3,2.0,5.7,111.9,0.16,23.3,28.3,"09:10:08",1
"20/09/02","09:30",0.0,30.8,64.8,1005.0,114.8,1.7,4.8,90.9,0.17,23.4,28.4,"09:21:44",1
"20/09/02","09:40",0.0,30.9,63.9,1005.0,124.2,2.0,4.9,146.3,0.21,23.3,28.7,"09:37:12",1
"20/09/02","09:50",0.0,30.8,64.4,1005.0,121.1,1.8,3.5,111.2,0.11,23.3,28.5,"09:41:12",1
"20/09/02","10:00",0.0,30.9,64.1,1004.8,101.3,2.0,4.1,107.2,0.19,23.4,28.4,"09:58:00",1
"20/09/02","10:10",0.0,31.0,63.2,1004.8,105.9,2.1,4.5,110.7,0.14,23.2,28.6,"10:07:44",1
"20/09/02","10:20",0.0,31.6,62.6,1004.8,114.0,2.2,4.3,100.3,0.29,23.6,28.7,"10:12:48",1
"20/09/02","10:30",0.0,32.1,61.1,1005.0,99.9,2.0,4.2,101.5,0.35,23.7,28.9,"10:25:12",1
"20/09/02","10:40",0.0,31.9,61.1,1005.0,101.6,1.8,4.5,112.9,0.22,23.5,29.1,"10:30:56",1
"20/09/02","10:50",0.0,32.1,61.9,1005.0,118.4,2.2,4.9,115.5,0.30,23.9,29.1,"10:45:20",1
"20/09/02","11:00",0.0,32.0,60.1,1005.0,105.7,2.5,5.1,111.2,0.20,23.3,28.9,"10:52:24",1
"20/09/02","11:10",0.0,32.3,60.4,1004.5,116.8,2.3,4.5,115.9,0.27,23.7,29.2,"11:02:32",1
"20/09/02","11:20",0.0,32.5,59.5,1004.8,110.6,2.2,5.5,107.8,0.34,23.6,29.3,"11:13:04",1
"20/09/02","11:30",0.0,32.5,58.3,1004.5,110.2,2.6,5.2,93.0,0.27,23.3,29.7,"11:25:28",1
"20/09/02","11:40",0.0,32.9,56.7,1004.8,108.4,2.8,4.9,97.6,0.38,23.2,29.7,"11:38:48",1
"20/09/02","11:50",0.0,32.9,56.0,1004.3,99.7,2.7,5.0,103.4,0.38,23.0,29.7,"11:41:44",1
"20/09/02","12:00",0.0,32.6,57.5,1003.8,110.1,2.6,5.7,111.1,0.16,23.2,29.8,"11:53:28",1
"20/09/02","12:10",0.0,33.2,57.4,1003.8,90.8,2.0,4.4,106.9,0.40,23.7,30.2,"12:08:56",1
"20/09/02","12:20",0.0,33.5,55.5,1004.3,69.0,2.2,4.7,68.6,0.43,23.4,30.2,"12:16:56",1
"20/09/02","12:30",0.0,32.9,56.5,1004.1,114.6,2.3,5.4,105.2,0.17,23.1,30.2,"12:26:40",1
"20/09/02","12:40",0.0,32.9,57.3,1004.1,108.8,1.7,4.7,116.0,0.14,23.4,30.2,"12:30:56",1
"20/09/02","12:50",0.0,32.2,58.2,1003.6,119.0,1.8,5.1,126.2,0.05,23.0,30.4,"12:45:36",1
"20/09/02","13:00",0.0,32.2,58.3,1003.4,97.9,2.5,5.9,115.5,0.05,23.0,30.2,"12:58:00",1
"20/09/02","13:10",0.0,32.1,59.6,1002.9,106.0,2.3,4.8,77.7,0.04,23.3,29.9,"13:04:00",1
"20/09/02","13:20",0.0,31.8,61.0,1002.9,110.1,2.1,4.5,110.9,0.04,23.4,30.0,"13:10:24",1
"20/09/02","13:30",0.0,31.7,61.8,1002.6,106.8,2.3,4.8,98.9,0.08,23.5,29.9,"13:27:12",1
"20/09/02","13:40",0.0,31.5,63.0,1002.4,103.3,2.5,5.8,96.2,0.06,23.6,29.7,"13:34:48",1
"20/09/02","13:50",0.0,31.3,64.4,1002.6,109.2,2.6,6.3,118.1,0.06,23.8,30.0,"13:49:12",1
"20/09/02","14:00",0.0,31.4,64.9,1002.6,113.9,2.2,4.9,145.1,0.12,24.0,29.7,"13:54:24",1
"20/09/02","14:10",0.0,31.2,66.0,1002.9,114.7,2.3,4.9,119.2,0.07,24.1,29.8,"14:08:00",1
"20/09/02","14:20",0.2,29.8,71.9,1001.9,109.8,2.2,4.7,103.7,0.05,24.2,29.5,"14:16:40",1
"20/09/02","14:30",0.0,29.3,75.5,1001.7,112.1,1.5,3.5,109.2,0.02,24.6,29.4,"14:26:56",1
"20/09/02","14:40",0.0,29.1,76.9,1001.5,129.9,1.1,3.1,134.1,0.00,24.7,29.2,"14:36:24",1
"20/09/02","14:50",0.0,28.9,78.2,1001.2,115.8,2.0,5.0,92.7,0.01,24.8,29.0,"14:40:08",1
"20/09/02","15:00",0.0,28.8,78.7,1001.5,109.0,2.1,3.7,107.4,0.00,24.8,29.2,"14:56:40",1
"20/09/02","15:10",0.6,28.7,79.6,1001.9,114.3,1.7,5.4,110.2,0.02,24.9,29.0,"15:04:32",1
"20/09/02","15:20",0.4,28.3,81.3,1001.9,130.9,1.1,3.9,113.9,0.02,24.8,28.9,"15:12:00",1
"20/09/02","15:30",0.0,28.1,82.5,1001.5,98.7,1.2,4.0,114.3,0.00,24.9,28.8,"15:28:56",1
"20/09/02","15:40",0.0,28.0,83.6,1001.7,68.5,1.5,3.4,72.2,0.02,25.0,28.7,"15:36:24",1
"20/09/02","15:50",0.0,27.9,84.3,1001.7,43.4,1.0,2.1,58.7,0.05,25.0,28.5,"15:48:32",1
"20/09/02","16:00",0.0,27.9,84.9,1001.7,51.0,1.0,2.4,46.8,0.06,25.2,28.7,"15:51:36",1
"20/09/02","16:10",0.0,28.0,84.8,1001.7,66.7,1.0,2.9,108.5,0.08,25.2,28.7,"16:09:00",1
"20/09/02","16:20",0.0,28.2,84.2,1001.2,97.3,1.6,4.0,115.4,0.10,25.3,28.5,"16:16:16",1
"20/09/02","16:30",0.0,28.5,83.3,1001.5,102.2,1.1,2.5,67.1,0.10,25.4,28.5,"16:20:24",1
"20/09/02","16:40",0.0,28.6,82.2,1000.8,100.7,1.2,3.2,58.8,0.05,25.3,28.6,"16:32:16",1
"20/09/02","16:50",0.0,28.7,81.3,1000.5,116.7,1.2,3.6,116.8,0.04,25.2,28.5,"16:47:28",1
"20/09/02","17:00",0.0,28.7,80.9,1000.8,126.7,1.6,3.6,115.7,0.05,25.1,28.7,"16:50:24",1
"20/09/02","17:10",0.0,29.0,80.3,1000.5,123.6,1.6,4.5,109.9,0.05,25.3,28.7,"17:04:08",1
"20/09/02","17:20",0.0,29.0,79.8,1000.3,116.6,1.5,3.3,123.8,0.04,25.2,28.6,"17:17:04",1
"20/09/02","17:30",0.0,29.1,79.6,1000.5,101.7,1.7,3.3,95.0,0.02,25.3,28.6,"17:25:36",1
"20/09/02","17:40",0.0,29.1,79.5,1000.5,102.0,1.6,3.6,86.8,0.00,25.2,28.5,"17:34:48",1
"20/09/02","17:50",0.0,29.0,79.6,1000.5,105.1,1.3,3.2,118.7,0.00,25.2,28.5,"17:49:52",1
"20/09/02","18:00",0.0,29.1,79.2,1000.5,101.2,1.7,4.7,83.8,0.00,25.2,28.6,"17:56:16",1
"20/09/02","18:10",0.0,29.1,78.9,1000.3,105.9,1.8,4.1,106.0,0.00,25.1,28.3,"18:02:32",1
"20/09/02","18:20",0.0,29.1,78.5,1000.5,101.3,1.8,5.7,109.7,0.00,25.0,28.3,"18:10:40",1
"20/09/02","18:30",0.0,29.0,78.2,1000.5,109.3,1.7,4.3,112.3,0.00,24.9,28.1,"18:28:08",1
"20/09/02","18:40",0.0,29.0,78.2,1000.8,103.5,1.8,4.0,110.4,0.00,24.9,28.2,"18:36:08",1
"20/09/02","18:50",0.0,29.0,78.2,1000.5,102.1,1.7,3.9,115.2,0.00,24.9,28.2,"18:47:44",1
"20/09/02","19:00",0.0,29.0,78.4,1000.8,121.9,1.6,4.2,100.6,0.00,24.9,28.1,"18:51:28",1
"20/09/02","19:10",0.0,28.9,78.7,1001.2,107.2,1.2,3.1,99.5,0.00,24.9,28.2,"19:04:56",1
"20/09/02","19:20",0.0,28.8,78.7,1001.5,111.9,1.2,3.3,97.5,0.00,24.8,28.1,"19:12:32",1
"20/09/02","19:30",0.0,28.9,78.7,1001.0,98.5,1.2,2.4,102.8,0.00,24.9,27.9,"19:28:24",1
"20/09/02","19:40",0.0,28.9,78.5,1001.2,110.2,1.1,2.4,109.7,0.00,24.8,28.0,"19:39:52",1
"20/09/02","19:50",0.0,28.9,78.2,1001.2,107.6,1.6,3.2,114.4,0.00,24.8,27.7,"19:47:36",1
"20/09/02","20:00",0.0,28.9,78.2,1001.2,101.6,1.3,3.1,88.3,0.00,24.8,27.7,"19:50:56",1
"20/09/02","20:10",0.0,29.0,78.3,1001.5,98.9,1.2,3.3,93.1,0.00,24.9,27.8,"20:02:24",1
"20/09/02","20:20",0.2,28.6,79.7,1001.5,65.7,0.8,2.4,94.7,0.00,24.8,27.8,"20:12:48",1
"20/09/02","20:30",0.0,28.1,81.3,1001.7,29.0,0.7,1.8,77.8,0.00,24.6,27.7,"20:21:36",1
"20/09/02","20:40",0.0,27.9,82.4,1001.7,91.8,0.5,1.4,36.3,0.00,24.7,27.9,"20:38:32",1
"20/09/02","20:50",0.0,27.9,83.0,1001.2,76.6,0.8,2.2,117.7,0.00,24.8,27.7,"20:46:40",1
"20/09/02","21:00",0.0,28.1,82.1,1001.7,107.0,1.0,2.2,112.6,0.00,24.8,27.7,"20:58:24",1
"20/09/02","21:10",0.0,28.4,81.1,1001.7,91.1,0.7,2.7,61.9,0.00,24.9,27.7,"21:03:20",1
"20/09/02","21:20",0.0,28.5,80.2,1001.5,132.4,1.2,3.4,109.5,0.00,24.8,27.6,"21:19:44",1
"20/09/02","21:30",0.0,28.8,78.9,1001.9,132.2,1.8,3.5,111.6,0.00,24.8,27.5,"21:25:04",1
"20/09/02","21:40",1.0,28.3,80.4,1001.9,136.5,1.3,3.1,155.9,0.00,24.6,27.5,"21:32:56",1
"20/09/02","21:50",0.4,27.6,83.1,1001.9,129.0,1.3,3.6,138.0,0.00,24.5,27.6,"21:45:52",1
"20/09/02","22:00",0.2,27.2,84.5,1001.9,126.8,0.7,1.8,93.6,0.00,24.4,27.4,"21:58:48",1
"20/09/02","22:10",0.0,27.0,85.6,1001.7,355.5,0.8,1.4,3.3,0.00,24.4,27.4,"22:04:08",1
"20/09/02","22:20",0.0,26.8,86.6,1001.5,354.4,0.7,1.6,349.3,0.00,24.4,27.5,"22:12:00",1
"20/09/02","22:30",0.0,26.5,87.1,1001.5,352.0,0.1,0.8,56.0,0.00,24.2,27.5,"22:20:08",1
"20/09/02","22:40",0.0,26.4,87.8,1001.5,275.9,0.3,1.2,309.6,0.00,24.3,27.3,"22:39:52",1
"20/09/02","22:50",0.0,26.5,88.2,1001.0,326.6,0.6,1.2,316.5,0.00,24.4,27.5,"22:47:28",1
"20/09/02","23:00",0.0,26.4,88.6,1001.5,234.7,0.3,0.9,327.2,0.00,24.4,27.6,"22:53:28",1
"20/09/02","23:10",0.0,26.4,89.1,1001.2,66.0,0.3,1.0,57.9,0.00,24.5,27.3,"23:08:16",1
"20/09/02","23:20",0.0,26.2,89.4,1001.0,168.8,0.5,1.1,85.2,0.00,24.4,27.3,"23:10:48",1
"20/09/02","23:30",0.0,26.4,89.8,1001.0,146.5,0.5,1.8,155.5,0.00,24.6,27.2,"23:27:04",1
"20/09/02","23:40",0.0,26.4,90.0,1000.8,315.2,0.8,1.7,293.6,0.00,24.7,27.4,"23:31:04",1
"20/09/02","23:50",0.0,26.3,90.2,1000.0,6.9,0.7,1.6,34.2,0.00,24.6,27.1,"23:44:16",1
"20/09/02","24:00",0.0,26.2,90.4,999.8,346.0,0.8,1.6,348.5,0.00,24.5,27.2,"23:51:04",1
